Wind_Speed
32 33 33 29 28 26 30 34 34 30 31 26 22 21 21 24 28 30 29 30 31 31 31 31 33 34 34 34 33 32 31 31 31 32 34 34 33 32 32 32 31 32 31 30
29 29 29 30 30 28 29 31 30 30 28 30 31 28 27 28 30 30 32 34 34 34 33 33 33 35 36 36 36 35 34 35 34 36 38 38 37 35 35 33 32 33 33 31
23 26 27 27 25 26 26 26 21 21 20 18 20 27 29 30 29 30 33 36 36 37 35 33 34 35 36 37 36 36 36 36 37 38 40 41 39 37 35 34 34 32 31 29
16 21 22 21 21 21 21 21 20 20 21 23 27 30 29 28 27 30 33 34 34 33 32 31 30 30 32 34 35 34 36 37 39 41 43 42 43 40 34 36 36 33 30 27
20 21 21 18 17 19 21 18 16 15 19 26 25 20 21 23 27 28 27 27 26 26 27 28 28 28 29 30 33 33 33 35 36 37 38 37 39 37 35 37 39 36 33 30
18 21 20 19 18 17 18 17 18 17 16 14 16 16 17 18 21 21 22 23 24 25 27 28 28 27 28 29 29 29 29 30 31 32 31 30 31 30 28 30 35 35 34 35
16 17 17 17 18 18 17 15 14 16 18 18 17 17 18 19 17 16 16 18 21 23 26 27 27 26 25 23 22 21 21 20 21 22 22 24 24 24 25 26 26 28 30 34
15 15 16 15 13 12 13 15 15 12 14 16 17 19 19 16 14 13 15 18 21 22 24 24 23 21 20 19 16 14 12 13 15 17 20 21 23 24 24 25 24 22 26 28
17 14 11 9 6 5 7 10 13 12 13 15 16 18 17 14 14 16 19 21 22 22 19 18 18 18 19 19 19 18 19 20 20 20 21 21 20 21 24 26 26 25 24 28
21 17 13 8 4 3 4 5 8 12 13 13 13 14 14 16 19 21 23 22 20 16 14 15 16 16 17 20 19 20 21 23 23 22 23 21 23 26 25 24 26 25 24 25
23 21 17 14 10 8 7 7 9 10 10 11 12 13 15 17 19 19 18 17 14 14 16 15 14 13 14 17 22 23 25 22 21 21 20 23 29 29 30 30 30 31 32 30
19 21 20 17 15 12 9 7 7 7 7 8 9 11 12 14 15 15 15 15 16 17 17 18 18 18 17 17 20 24 27 30 31 29 26 24 27 30 32 34 37 38 37 35
14 14 15 15 15 14 11 8 7 7 7 7 8 10 12 13 13 14 14 13 13 13 13 15 17 18 20 19 19 20 23 26 28 29 29 29 31 35 38 38 37 38 38 39
12 10 8 8 9 11 11 10 9 9 8 9 10 10 9 9 10 11 12 10 9 10 11 12 12 14 16 17 17 19 21 22 23 24 26 27 29 31 34 38 38 37 37 37
13 12 10 7 6 6 7 8 9 10 12 13 14 14 13 13 12 12 13 14 13 11 10 10 10 12 14 16 18 20 22 23 23 24 25 26 26 27 28 30 33 34 35 37
16 14 15 13 10 8 7 7 8 9 11 12 12 13 13 13 12 12 13 14 14 13 13 13 13 12 12 13 15 16 18 21 23 25 26 27 27 28 28 29 31 33 35 38
19 18 17 18 16 14 12 10 10 12 13 14 16 15 14 15 15 15 14 14 14 14 14 14 15 16 16 16 15 16 17 18 20 23 25 26 28 29 31 32 33 35 36 38
22 21 21 22 21 21 19 16 14 14 13 15 16 17 17 16 17 17 16 16 15 15 15 16 16 17 18 19 19 19 19 20 21 23 25 27 30 31 31 32 34 35 36 36
25 25 24 24 24 24 23 22 20 19 17 17 18 18 18 17 17 18 18 18 18 17 17 18 19 20 22 23 24 24 24 23 24 25 27 29 30 32 34 35 36 39 40 39
26 27 27 26 25 25 24 23 22 22 21 20 20 21 20 19 19 19 20 20 20 20 20 21 22 23 25 27 28 26 26 26 27 28 31 33 36 38 38 38 39 42 42 42
30 30 28 26 27 26 24 23 22 23 23 22 22 23 22 22 21 21 22 23 22 21 22 23 24 25 28 29 29 27 27 28 29 32 34 37 40 42 42 41 41 41 40 40
32 33 31 28 28 27 25 24 23 24 23 23 24 24 23 24 24 23 24 24 23 22 23 23 24 26 29 29 28 27 29 31 33 36 38 40 42 42 41 41 41 42 43 41
31 32 32 30 29 29 26 25 24 24 23 23 24 24 23 24 24 24 24 25 24 23 22 22 22 23 25 25 28 29 33 36 38 42 43 43 43 43 42 43 44 44 42 39
27 27 26 28 28 28 26 26 26 24 23 24 24 24 23 24 23 23 24 25 25 24 22 20 19 22 26 28 31 33 35 37 43 45 44 44 44 44 44 45 44 41 37 33
26 25 24 24 25 25 27 27 27 25 24 25 25 25 25 24 23 22 22 23 25 24 21 20 20 22 25 28 30 32 35 41 43 42 42 42 42 43 44 43 39 36 33 30
32 28 25 25 26 28 29 28 26 24 23 25 26 26 26 25 23 22 22 22 22 21 21 22 24 26 30 31 29 32 37 38 39 41 40 40 40 41 40 37 33 31 29 27
38 36 31 28 26 28 30 28 25 22 20 21 24 27 27 25 24 23 23 22 21 23 24 25 26 29 34 32 31 36 39 39 40 41 39 38 38 38 35 32 30 29 27 25
Wind_Direction
283 276 273 276 275 266 257 255 254 256 254 246 251 252 259 261 261 263 265 271 272 267 261 263 264 265 268 269 272 272 269 268 269 270 272 273 273 270 266 262 261 262 265 263
277 271 271 271 270 268 262 257 252 254 260 265 263 265 265 265 264 266 270 273 275 275 271 268 267 266 266 267 267 268 269 267 265 266 268 269 271 271 269 267 265 263 265 264
277 269 266 274 275 269 261 251 248 248 256 268 251 244 245 245 252 262 272 277 281 282 280 275 270 268 268 269 268 265 264 263 262 261 262 263 265 264 263 262 258 259 258 261
292 281 286 276 270 268 265 263 267 264 254 244 230 224 231 241 253 272 277 278 278 277 275 274 272 269 268 269 269 268 266 265 263 260 259 259 260 262 260 259 258 258 256 256
294 288 283 287 284 273 269 273 267 262 247 248 244 263 264 263 271 275 275 278 277 275 274 272 272 272 273 273 271 269 266 264 263 264 266 266 266 265 262 259 257 257 258 255
295 297 285 279 278 278 273 279 272 267 266 262 258 263 269 270 272 274 275 280 284 285 282 278 276 276 279 278 274 270 266 262 261 260 262 265 267 269 267 260 258 256 257 258
301 291 289 285 278 274 277 271 270 271 269 265 265 271 275 275 270 269 281 294 297 295 290 284 280 280 281 278 273 271 268 263 261 262 260 261 264 267 266 260 257 259 259 257
329 310 305 299 285 269 265 255 255 273 273 268 269 267 269 262 255 270 289 301 304 299 294 287 281 279 277 271 268 271 269 262 265 262 263 263 265 266 263 255 241 237 245 248
7 353 341 327 313 276 274 267 257 271 282 276 272 272 271 256 261 278 291 296 300 296 295 293 289 282 268 262 264 264 262 261 260 257 261 271 272 271 267 264 260 253 253 254
27 28 29 23 21 357 332 303 278 279 283 284 285 285 276 266 277 292 295 294 294 291 294 302 301 292 275 258 260 260 256 253 251 254 256 256 272 278 274 274 275 279 286 286
30 35 41 42 39 28 9 342 324 314 306 301 297 296 291 286 285 288 288 289 288 289 293 295 295 295 287 268 262 263 260 254 251 252 266 276 276 269 266 269 270 274 280 279
27 30 37 40 43 42 31 6 345 329 317 307 300 297 297 295 293 294 296 294 290 287 283 279 279 282 286 283 272 268 270 273 276 278 279 277 267 261 264 265 267 269 272 274
15 26 28 28 38 48 50 42 30 16 358 343 333 321 315 311 309 308 305 303 302 297 290 285 284 284 286 289 287 281 277 278 278 279 280 278 273 269 268 267 269 270 269 269
346 1 12 17 18 27 37 39 36 32 25 25 25 21 12 1 352 344 338 329 319 313 307 302 297 291 288 290 292 292 290 288 287 285 283 281 280 279 276 274 273 269 264 261
318 325 329 334 341 345 358 5 6 7 2 4 10 15 14 14 7 354 346 346 348 341 329 320 310 302 298 297 297 296 294 292 289 288 288 287 286 284 281 279 277 275 272 268
298 300 301 302 308 311 317 318 316 322 329 334 337 343 348 351 350 347 345 345 345 345 340 333 328 321 314 307 303 298 295 292 291 290 289 289 288 287 285 282 280 278 277 277
280 282 285 287 291 293 295 304 311 313 316 316 317 319 322 324 326 327 329 330 330 331 331 328 328 329 328 325 319 312 306 302 298 295 294 293 292 291 289 286 284 283 281 279
271 273 276 277 280 283 286 290 294 302 312 313 313 314 316 319 322 324 325 324 322 322 322 321 321 321 322 321 318 314 311 309 308 307 303 300 299 298 297 295 293 289 284 280
263 267 269 272 275 279 282 285 289 292 295 300 303 308 312 315 319 320 321 319 319 317 318 319 318 321 322 322 320 315 311 309 307 305 303 302 303 303 304 305 307 308 304 298
252 256 262 267 272 274 278 282 286 287 288 288 293 297 301 307 311 313 314 314 313 313 314 315 315 318 318 319 318 313 309 308 307 307 307 305 304 304 304 302 300 300 299 297
253 247 250 259 266 270 272 277 283 287 290 293 292 290 294 299 304 307 307 304 305 306 307 309 312 313 314 316 319 320 318 314 311 309 309 307 305 305 305 304 303 303 304 303
265 255 248 250 257 262 266 272 279 285 291 293 293 292 292 294 297 299 298 297 300 301 302 305 308 311 314 318 320 322 322 318 313 312 311 312 311 311 312 312 312 312 312 311
272 270 260 253 253 256 260 264 270 278 285 287 288 290 291 290 290 291 291 292 294 296 296 298 305 309 311 315 316 317 317 317 316 314 313 315 317 318 317 316 316 316 315 314
267 269 267 260 259 261 261 262 265 270 276 280 283 286 288 288 288 288 288 291 293 295 292 292 302 315 317 314 316 317 314 310 309 309 311 316 317 317 317 318 318 318 315 311
268 266 262 259 259 259 259 260 265 269 273 277 282 286 288 288 287 287 290 293 294 294 293 294 296 305 310 308 308 311 308 303 304 307 313 315 316 317 318 319 320 318 314 309
268 265 261 255 254 256 259 259 261 268 277 280 279 282 286 289 288 288 292 293 289 285 288 294 296 297 300 309 315 309 309 309 310 313 316 318 320 321 323 323 321 321 319 314
264 264 263 257 251 252 256 258 259 263 276 287 284 280 281 285 286 286 288 292 288 285 291 295 295 297 300 306 313 309 307 311 314 317 320 323 325 324 325 324 323 321 321 321
Height
5733 5731 5731 5732 5733 5735 5735 5734 5737 5740 5741 5744 5745 5746 5747 5748 5751 5753 5755 5756 5757 5758 5759 5759 5759 5759 5759 5760 5761 5762 5763 5763 5762 5762 5762 5762 5763 5764 5764 5764 5766 5767 5769 5769
5723 5722 5721 5722 5724 5725 5725 5725 5727 5730 5733 5735 5737 5738 5740 5742 5742 5743 5744 5746 5747 5748 5750 5750 5750 5750 5750 5750 5751 5751 5752 5752 5751 5751 5750 5751 5751 5752 5753 5755 5756 5757 5759 5759
5715 5714 5712 5714 5715 5715 5716 5718 5720 5722 5726 5728 5730 5732 5733 5734 5737 5738 5738 5737 5737 5737 5737 5738 5737 5737 5738 5738 5738 5740 5741 5741 5740 5740 5740 5742 5742 5742 5743 5745 5746 5747 5748 5750
5710 5709 5709 5710 5708 5708 5710 5711 5713 5716 5720 5724 5722 5723 5724 5726 5729 5731 5731 5730 5729 5728 5726 5726 5726 5726 5726 5726 5726 5727 5728 5727 5727 5727 5728 5731 5731 5733 5736 5735 5736 5737 5738 5739
5706 5704 5704 5705 5704 5703 5705 5707 5710 5712 5714 5716 5718 5719 5719 5720 5721 5722 5721 5721 5721 5721 5720 5719 5718 5717 5717 5717 5717 5716 5716 5715 5716 5717 5717 5719 5720 5722 5723 5724 5726 5728 5729 5731
5702 5700 5700 5702 5701 5701 5703 5705 5706 5708 5710 5711 5713 5714 5714 5714 5714 5714 5714 5714 5713 5713 5712 5711 5711 5710 5709 5708 5707 5706 5706 5706 5707 5708 5709 5711 5712 5712 5713 5714 5715 5719 5722 5723
5700 5698 5697 5698 5698 5699 5702 5703 5703 5704 5705 5707 5708 5709 5709 5709 5709 5710 5709 5708 5707 5705 5703 5702 5701 5701 5701 5700 5699 5698 5698 5698 5699 5701 5703 5705 5705 5705 5705 5706 5707 5709 5710 5712
5699 5697 5698 5695 5694 5696 5698 5699 5701 5701 5701 5702 5704 5704 5704 5704 5704 5704 5703 5703 5701 5699 5696 5694 5693 5693 5693 5693 5693 5693 5693 5694 5695 5697 5697 5698 5698 5698 5699 5699 5701 5701 5702 5702
5699 5698 5694 5693 5693 5694 5696 5697 5698 5699 5698 5699 5699 5699 5699 5699 5699 5698 5697 5696 5695 5693 5691 5689 5688 5687 5687 5688 5688 5689 5690 5691 5691 5692 5693 5693 5694 5694 5694 5694 5694 5693 5693 5694
5700 5697 5694 5693 5693 5694 5695 5696 5697 5697 5696 5696 5696 5695 5695 5695 5695 5693 5692 5690 5689 5687 5686 5686 5684 5684 5684 5684 5685 5685 5685 5685 5686 5686 5687 5687 5688 5688 5688 5688 5687 5687 5687 5687
5704 5701 5698 5696 5695 5694 5694 5694 5694 5693 5693 5693 5693 5692 5692 5691 5690 5689 5687 5686 5685 5684 5683 5682 5682 5681 5681 5681 5681 5681 5681 5680 5681 5681 5681 5682 5681 5681 5681 5682 5681 5680 5680 5680
5708 5704 5701 5699 5697 5696 5695 5694 5693 5692 5691 5691 5691 5690 5689 5687 5686 5684 5683 5681 5680 5679 5678 5677 5677 5677 5677 5677 5676 5675 5675 5674 5675 5674 5673 5674 5676 5675 5674 5673 5672 5671 5671 5671
5709 5706 5704 5702 5700 5697 5696 5694 5693 5692 5691 5690 5689 5688 5686 5684 5681 5680 5678 5676 5674 5672 5672 5671 5671 5671 5671 5670 5670 5669 5669 5668 5666 5665 5665 5664 5663 5663 5663 5663 5662 5660 5659 5659
5711 5707 5704 5703 5701 5699 5696 5694 5693 5691 5690 5689 5688 5686 5684 5682 5679 5676 5674 5673 5671 5670 5668 5667 5666 5666 5666 5665 5665 5663 5662 5661 5659 5658 5657 5655 5654 5652 5651 5651 5651 5650 5648 5647
5709 5706 5704 5702 5700 5698 5696 5693 5692 5690 5689 5687 5686 5684 5683 5680 5678 5675 5672 5669 5667 5666 5665 5664 5663 5662 5661 5660 5659 5657 5656 5653 5652 5650 5648 5647 5646 5644 5642 5641 5639 5637 5636 5635
5704 5703 5702 5700 5697 5696 5694 5692 5690 5688 5686 5684 5683 5682 5680 5678 5676 5673 5671 5668 5665 5662 5660 5659 5658 5657 5656 5654 5653 5651 5649 5647 5645 5643 5641 5639 5637 5635 5633 5630 5628 5626 5624 5622
5699 5698 5697 5696 5694 5693 5690 5688 5686 5685 5682 5680 5678 5677 5676 5674 5672 5670 5667 5665 5663 5661 5658 5655 5653 5651 5650 5648 5647 5645 5643 5640 5638 5636 5633 5631 5628 5626 5623 5620 5618 5615 5613 5610
5692 5691 5690 5690 5689 5688 5686 5684 5681 5679 5677 5676 5674 5672 5671 5669 5667 5665 5663 5661 5659 5657 5655 5652 5650 5647 5645 5643 5641 5639 5636 5633 5630 5627 5625 5622 5619 5615 5612 5608 5604 5601 5598 5596
5683 5683 5683 5682 5681 5680 5679 5676 5675 5673 5672 5671 5669 5667 5666 5664 5661 5659 5658 5656 5655 5653 5651 5648 5645 5642 5639 5637 5634 5631 5628 5625 5623 5620 5617 5613 5609 5605 5601 5596 5592 5586 5581 5577
5673 5674 5674 5673 5673 5672 5671 5669 5668 5666 5666 5665 5663 5662 5660 5658 5656 5654 5652 5650 5649 5647 5644 5642 5639 5636 5633 5630 5628 5625 5622 5619 5615 5612 5608 5604 5600 5594 5590 5585 5581 5576 5570 5564
5662 5663 5664 5664 5664 5664 5663 5662 5661 5660 5659 5657 5656 5655 5652 5650 5649 5647 5646 5644 5642 5640 5637 5635 5632 5629 5627 5625 5622 5618 5615 5611 5608 5604 5600 5595 5590 5585 5579 5574 5569 5563 5557 5551
5651 5652 5653 5654 5656 5656 5655 5655 5654 5652 5651 5650 5649 5647 5646 5643 5642 5642 5640 5637 5634 5632 5629 5627 5625 5622 5620 5617 5614 5610 5607 5604 5600 5595 5591 5585 5580 5574 5568 5562 5556 5549 5543 5537
5640 5641 5644 5645 5646 5647 5647 5647 5646 5645 5644 5643 5642 5641 5639 5637 5636 5635 5633 5630 5627 5624 5622 5620 5618 5615 5613 5610 5607 5604 5601 5596 5592 5587 5581 5575 5568 5562 5556 5549 5543 5536 5529 5524
5632 5632 5634 5635 5636 5638 5639 5639 5639 5638 5638 5637 5636 5634 5632 5630 5629 5628 5626 5623 5620 5617 5615 5613 5610 5608 5605 5603 5600 5596 5593 5589 5585 5579 5572 5566 5559 5552 5546 5539 5531 5524 5518 5514
5624 5624 5624 5625 5627 5629 5630 5630 5630 5630 5630 5629 5628 5627 5624 5623 5621 5620 5618 5615 5612 5610 5608 5606 5604 5602 5600 5598 5595 5591 5587 5583 5577 5571 5565 5558 5551 5543 5536 5529 5521 5515 5509 5505
5614 5615 5615 5615 5617 5618 5619 5620 5621 5621 5621 5620 5620 5618 5617 5615 5614 5613 5610 5608 5605 5604 5602 5601 5598 5596 5594 5592 5587 5583 5579 5573 5568 5563 5556 5549 5542 5534 5527 5520 5513 5508 5502 5497
5602 5602 5604 5605 5606 5607 5608 5610 5612 5613 5613 5613 5612 5610 5609 5608 5607 5606 5604 5601 5599 5597 5596 5594 5592 5589 5586 5583 5579 5576 5571 5565 5560 5554 5547 5540 5533 5526 5519 5513 5507 5501 5496 5491